This is the latest recevied weather packets stored in our database for station/object NL3D. If no packets are shown the sender has not sent any weather packets the latest 1 day(s).
| Time | Temp. | Humidity | Pressure | Rain* | Wind** | Luminosity | Snow |
|---|---|---|---|---|---|---|---|
| 1778035126 | 10° C | 48% | 1006.9 hPa | 0 mm | 1.34 m/s, 164° | 172 W/m² | - |
| 1778034823 | 10° C | 49% | 1006.9 hPa | 0 mm | 0 m/s | 202 W/m² | - |
| 1778034520 | 10.56° C | 49% | 1006.9 hPa | 0 mm | 2.68 m/s, 143° | 202 W/m² | - |
| 1778034217 | 10.56° C | 48% | 1006.9 hPa | 0 mm | 1.34 m/s, 187° | 219 W/m² | - |
| 1778033916 | 10.56° C | 47% | 1006.9 hPa | 0 mm | 0.89 m/s, 89° | 196 W/m² | - |
| 1778033612 | 10.56° C | 47% | 1006.7 hPa | 0 mm | 0.89 m/s, 81° | 207 W/m² | - |
| 1778033308 | 10.56° C | 47% | 1006.8 hPa | 0 mm | 0 m/s | 229 W/m² | - |
| 1778033007 | 10.56° C | 47% | 1006.8 hPa | 0 mm | 1.34 m/s, 175° | 211 W/m² | - |
| 1778032704 | 10.56° C | 48% | 1006.6 hPa | 0 mm | 1.79 m/s, 1° | 191 W/m² | - |
| 1778032401 | 11.11° C | 47% | 1006.9 hPa | 0 mm | 1.79 m/s, 81° | 236 W/m² | - |
| 1778032098 | 11.67° C | 47% | 1006.8 hPa | 0 mm | 0.89 m/s, 0° | 519 W/m² | - |
| 1778031795 | 11.11° C | 48% | 1006.7 hPa | 0 mm | 1.79 m/s, 29° | 426 W/m² | - |
| 1778031492 | 11.11° C | 48% | 1006.8 hPa | 0 mm | 2.24 m/s, 177° | 310 W/m² | - |
| 1778031189 | 11.11° C | 47% | 1006.9 hPa | 0 mm | 0.89 m/s, 155° | 326 W/m² | - |
| 1778030885 | 11.11° C | 48% | 1006.8 hPa | 0 mm | 0.89 m/s, 112° | 282 W/m² | - |
| 1778030582 | 11.11° C | 46% | 1006.9 hPa | 0 mm | 0 m/s | 353 W/m² | - |
| 1778030279 | 11.11° C | 45% | 1006.9 hPa | 0 mm | 2.68 m/s, 34° | 543 W/m² | - |
| 1778029976 | 11.11° C | 47% | 1006.9 hPa | 0 mm | 0.45 m/s, 198° | 328 W/m² | - |
| 1778029674 | 11.11° C | 47% | 1007 hPa | 0 mm | 0.89 m/s, 1° | 407 W/m² | - |
| 1778029371 | 11.67° C | 45% | 1007 hPa | 0 mm | 1.79 m/s, 203° | 355 W/m² | - |
| 1778029068 | 11.67° C | 45% | 1006.7 hPa | 0 mm | 0.89 m/s, 160° | 454 W/m² | - |
| 1778028765 | 12.22° C | 44% | 1006.9 hPa | 0 mm | 2.68 m/s, 160° | 383 W/m² | - |
| 1778028461 | 11.67° C | 45% | 1006.8 hPa | 0 mm | 1.79 m/s, 162° | 686 W/m² | - |
| 1778028159 | 11.67° C | 48% | 1006.7 hPa | 0 mm | 0.45 m/s, 149° | 353 W/m² | - |
| 1778027854 | 11.67° C | 47% | 1006.8 hPa | 0 mm | 0.89 m/s, 180° | 394 W/m² | - |
* Rain latest hour (hover to see other rain measurements)
** Current wind speed in m/s (hover to see current wind gust speed)